TimeEST,TemperatureF,Dew PointF,Humidity,Sea Level PressureIn,VisibilityMPH,Wind Direction,Wind SpeedMPH,Gust SpeedMPH,PrecipitationIn,Events,Conditions,WindDirDegrees,DateUTC
12:00 AM,32.0,24.8,75,29.73,15.0,West,17.3,25.3,N/A,,Mostly Cloudy,260,2012-11-24 05:00:00
1:00 AM,33,22,54,29.73,15,West,26.5,,,,Partly Cloudy,280,2012-11-24 06:00:00
1:00 AM,32.0,23.0,69,29.73,15.0,West,25.3,31.1,N/A,,Partly Cloudy,280,2012-11-24 06:00:00
2:00 AM,32.0,23.0,69,29.75,15.0,West,21.9,-,N/A,,Partly Cloudy,280,2012-11-24 07:00:00
3:00 AM,32.0,23.0,69,29.77,15.0,West,15.0,20.7,N/A,,Partly Cloudy,280,2012-11-24 08:00:00
4:00 AM,32.0,23.0,69,29.78,15.0,West,17.3,23.0,N/A,,Mostly Cloudy,280,2012-11-24 09:00:00
4:34 AM,32.0,-9999,N/A,-9999,6.0,West,15.0,20.7,N/A,Snow,Light Snow Showers,280,2012-11-24 09:34:00
5:00 AM,30.2,24.8,80,29.79,5.0,NW,15.0,-,N/A,Snow,Light Snow Showers,310,2012-11-24 10:00:00
5:33 AM,30.2,-9999,N/A,-9999,15.0,West,15.0,21.9,N/A,,Partly Cloudy,280,2012-11-24 10:33:00
6:00 AM,30.2,23.0,75,29.81,15.0,West,13.8,19.6,N/A,,Partly Cloudy,280,2012-11-24 11:00:00
7:00 AM,30,20,56,29.84,15,WNW,17.3,,,,Partly Cloudy,300,2012-11-24 12:00:00
7:00 AM,30.2,21.2,69,29.84,15.0,WNW,17.3,24.2,N/A,,Partly Cloudy,300,2012-11-24 12:00:00
8:00 AM,30.2,21.2,69,29.86,15.0,NW,18.4,29.9,N/A,,Partly Cloudy,310,2012-11-24 13:00:00
9:00 AM,32.0,21.2,64,29.88,15.0,NW,23.0,29.9,N/A,,Partly Cloudy,310,2012-11-24 14:00:00
10:00 AM,33.8,19.4,56,29.89,15.0,WNW,24.2,29.9,N/A,,Partly Cloudy,300,2012-11-24 15:00:00
11:00 AM,33.8,17.6,52,29.89,15.0,NW,21.9,31.1,N/A,,Partly Cloudy,310,2012-11-24 16:00:00
12:00 PM,35.6,17.6,48,29.89,15.0,NW,23.0,31.1,N/A,,Scattered Clouds,310,2012-11-24 17:00:00
1:00 PM,36,16,31,29.88,15,NW,20.7,,,,Scattered Clouds,320,2012-11-24 18:00:00
1:00 PM,35.6,15.8,44,29.88,15.0,NW,19.6,27.6,N/A,,Scattered Clouds,320,2012-11-24 18:00:00
2:00 PM,35.6,17.6,48,29.90,15.0,NW,20.7,31.1,N/A,,Scattered Clouds,310,2012-11-24 19:00:00
3:00 PM,35.6,17.6,48,29.90,15.0,WNW,19.6,31.1,N/A,,Scattered Clouds,300,2012-11-24 20:00:00
4:00 PM,33.8,19.4,56,29.92,15.0,NW,20.7,-,N/A,,Scattered Clouds,320,2012-11-24 21:00:00
5:00 PM,32.0,17.6,55,29.93,15.0,NW,17.3,-,N/A,,Scattered Clouds,310,2012-11-24 22:00:00
6:00 PM,32.0,19.4,60,29.95,15.0,WNW,17.3,23.0,N/A,,Scattered Clouds,300,2012-11-24 23:00:00
7:00 PM,32,19,45,29.96,15,NW,18.4,,,,Mostly Cloudy,310,2012-11-25 00:00:00
7:00 PM,32.0,19.4,60,29.96,15.0,NW,19.6,-,N/A,,Mostly Cloudy,310,2012-11-25 00:00:00
7:22 PM,32.0,-9999,N/A,-9999,15.0,NW,18.4,-,N/A,Snow,Light Snow Showers,310,2012-11-25 00:22:00
8:00 PM,32.0,17.6,55,29.96,15.0,WNW,23.0,-,N/A,Snow,Light Snow Showers,300,2012-11-25 01:00:00
8:54 PM,30.2,-9999,N/A,-9999,15.0,West,11.5,-,N/A,,Mostly Cloudy,280,2012-11-25 01:54:00
9:00 PM,30.2,17.6,60,29.96,15.0,WNW,11.5,-,N/A,,Mostly Cloudy,290,2012-11-25 02:00:00
10:00 PM,28.4,19.4,69,29.95,15.0,West,9.2,-,N/A,,Mostly Cloudy,280,2012-11-25 03:00:00
11:00 PM,30.2,21.2,69,29.95,15.0,West,6.9,-,N/A,,Mostly Cloudy,270,2012-11-25 04:00:00